This is the latest recevied weather packets stored in our database for station/object M0HZQ-1. If no packets are shown the sender has not sent any weather packets the latest 10 day(s).
| Time | Temp. | Humidity | Pressure | Rain* | Wind** | Luminosity | Snow |
|---|---|---|---|---|---|---|---|
| 1778116889 | 10.56° C | 63% | 1015.6 hPa | 0 mm | - | - | - |
| 1778115694 | 11.11° C | 63% | 1015.7 hPa | 0 mm | - | - | - |
| 1778114714 | 11.11° C | 63% | 1015.6 hPa | 0 mm | - | - | - |
| 1778113697 | 10.56° C | 63% | 1015.7 hPa | 0 mm | - | - | - |
| 1778112682 | 10.56° C | 63% | 1015.8 hPa | 0 mm | - | - | - |
| 1778111644 | 10.56° C | 62% | 1015.8 hPa | 0 mm | - | - | - |
| 1778110517 | 11.11° C | 61% | 1015.5 hPa | 0 mm | - | - | - |
| 1778109544 | 11.11° C | 61% | 1015.6 hPa | 0 mm | - | - | - |
| 1778108424 | 10.56° C | 61% | 1015.6 hPa | 0 mm | - | - | - |
| 1778107457 | 11.11° C | 60% | 1015.7 hPa | 0 mm | - | - | - |
| 1778106309 | 10.56° C | 59% | 1015.5 hPa | 0 mm | - | - | - |
| 1778105317 | 11.11° C | 58% | 1015.4 hPa | 0 mm | - | - | - |
| 1778104244 | 11.67° C | 57% | 1015.3 hPa | 0 mm | - | - | - |
| 1778103159 | 11.67° C | 55% | 1015.5 hPa | 0 mm | - | - | - |
| 1778102184 | 11.67° C | 54% | 1015.4 hPa | 0 mm | - | - | - |
| 1778101104 | 11.67° C | 54% | 1015.2 hPa | 0 mm | - | - | - |
| 1778099979 | 11.67° C | 52% | 1015.2 hPa | 0 mm | - | - | - |
| 1778098894 | 12.78° C | 51% | 1015.1 hPa | 0 mm | - | - | - |
| 1778097924 | 12.22° C | 51% | 1014.8 hPa | 0 mm | - | - | - |
| 1778096884 | 12.22° C | 50% | 1014.7 hPa | 0 mm | - | - | - |
| 1778095849 | 12.78° C | 48% | 1014.6 hPa | 0 mm | - | - | - |
| 1778094874 | 12.78° C | 47% | 1014.5 hPa | 0 mm | - | - | - |
| 1778093804 | 13.33° C | 47% | 1014.4 hPa | 0 mm | - | - | - |
| 1778092677 | 13.33° C | 46% | 1014.3 hPa | 0 mm | - | - | - |
| 1778091549 | 13.33° C | 46% | 1014.1 hPa | 0 mm | - | - | - |
* Rain latest hour (hover to see other rain measurements)
** Current wind speed in m/s (hover to see current wind gust speed)